Location: Eastview
(35.0756°N, 88.5453°W)
Time: 21:37:34
(UTC+00:00)

Cosmos 1634 Rocket - Pass Details

Date: 22 November 2019
Orbit: 959 x 993 km, 82.9° (Epoch: 05 December)

Event Time Altitude Azimuth Distance (km) Brightness Sun altitude
Rises 23:43:29 0° 2° (N) 3,650 6.8 -12.1°
Reaches altitude 10° 23:46:10 10° 10° (N) 2,698 6.1 -12.6°
Maximum altitude 23:51:55 40° 79° (ENE) 1,385 4.3 -13.7°
Drops below altitude 10° 23:57:37 10° 147° (SSE) 2,684 6.1 -14.9°
Sets 00:00:16 0° 155° (SSE) 3,629 6.9 -15.4°
